Content
SEND FEEDBACK

Daily
Averages
Monthly
Summary
United States of America

MILLERSBURG, OHIO


Home > North America > United States > Ohio
Elevation: 1046 feet     Latitude: 40 33N     Longitude: 081 55W

WEATHER
 
SELECT A DAY
Number of Records: 209,967;   Date Range: 12/11/96 - 7/28/14
 
SHARE

PRINT THIS DATA

[ ← Previous Day ]
WEATHER ALMANAC - JANUARY 31, 2013
[ Next Day → ]
[ °C ]   °F
Weather ElementAverageHighLow
Temperature23.2 °F34 °F (12:56 am)16 °F (11:56 pm)
Dewpoint16.7 °F30.2 °F (12:14 am)6.1 °F (11:56 pm)
Humidity76.7 %93 % (4:21 pm)63 % (11:09 am)
Barometer29.70 in29.91 in (10:56 pm)29.33 in (12:14 am)
Wind Speed20.1 mph29.9 mph (3:56 am)
Wind Gust51.8 mph (2:25 am)
Weather ElementAverage
Visibility4.8 mi
Wind DirectionW (269.6 °)

Weather ElementTotal
Precipitation0.03 in
Heating Degree Days40 (Base 65)
Averaged from 72 records on January 31, 2013
WEATHER CONDITIONS BREAKOUT
WIND DIRECTION BREAKOUT
WEATHER BY HOUR - JANUARY 31, 2013
[ °C ]   °F
Local TimeTemperatureDewpointHumidityBarometerVisibilityWind DirectionWind SpeedGust SpeedPrecipitationEventsConditions
12:14 AM33.8 °F30.2 °F87 %29.33 in8.0 miWest (270°)21.9 mph40.3 mph0.00 inSnowLight Snow
12:56 AM34.0 °F28.0 °F79 %29.36 in10.0 miWest (270°)24.2 mph31.1 mph0.00 inOvercast
1:56 AM32.0 °F25.0 °F75 %29.42 in10.0 miWest (280°)20.7 mph40.3 mphOvercast
2:25 AM30.2 °F19.4 °F64 %29.43 in10.0 miWest (280°)27.6 mph51.8 mph0.00 inMostly Cloudy
2:56 AM30.9 °F19.9 °F64 %29.46 in10.0 miWest (280°)25.3 mph36.8 mph0.00 inOvercast
3:56 AM28.9 °F24.1 °F82 %29.48 in1.8 miWNW (290°)29.9 mph40.3 mph0.00 inSnowLight Snow
4:07 AM28.4 °F24.8 °F86 %29.47 in3.0 miWest (280°)27.6 mph36.8 mph0.00 inSnowLight Snow
4:29 AM28.4 °F21.2 °F74 %29.48 in10.0 miWest (270°)25.3 mph38.0 mph0.00 inOvercast
4:56 AM28.9 °F19.9 °F69 %29.52 in10.0 miWest (270°)18.4 mph38.0 mph0.00 inOvercast
5:04 AM28.4 °F21.2 °F74 %29.51 in4.0 miWest (270°)24.2 mph35.7 mph0.00 inSnowLight Snow
5:44 AM26.6 °F21.2 °F80 %29.53 in1.8 miWest (280°)27.6 mph38.0 mph0.00 inSnowLight Snow
5:56 AM26.1 °F21.0 °F81 %29.56 in1.8 miWest (270°)26.5 mph34.5 mph0.00 inSnowLight Snow
6:04 AM26.6 °F21.2 °F80 %29.55 in3.0 miWest (280°)19.6 mph32.2 mph0.00 inSnowLight Snow
6:43 AM24.8 °F19.4 °F80 %29.58 in1.8 miWest (270°)25.3 mph38.0 mph0.00 inSnowLight Snow
6:50 AM24.8 °F17.6 °F74 %29.58 in2.0 miWest (260°)23.0 mph38.0 mph0.00 inSnowLight Snow
6:51 AM25.0 °F18.0 °F75 %29.60 in2.5 miWest (260°)20.7 mph34.5 mph0.00 inSnowLight Snow
6:58 AM24.8 °F17.6 °F74 %29.58 in6.0 miWest (260°)21.9 mph33.4 mph0.00 inSnowLight Snow
7:47 AM24.8 °F15.8 °F69 %29.62 in4.0 miWest (270°)18.4 mph29.9 mph0.00 inSnowLight Snow
7:56 AM24.1 °F15.1 °F69 %29.65 in7.0 miWSW (250°)21.9 mph38.0 mph0.00 inSnowLight Snow
8:03 AM23.0 °F15.8 °F74 %29.63 in4.0 miWest (260°)21.9 mph29.9 mph0.00 inSnowLight Snow
8:19 AM23.0 °F15.8 °F74 %29.64 in4.0 miWest (280°)28.8 mph38.0 mph0.00 inSnowLight Snow
8:56 AM23.0 °F15.1 °F72 %29.69 in9.0 miWest (270°)19.6 mph27.6 mph0.00 inOvercast
9:51 AM21.2 °F15.8 °F80 %29.68 in1.0 miWest (260°)21.9 mph26.5 mph0.00 inSnowLight Snow
9:56 AM21.9 °F17.1 °F82 %29.71 in0.8 miWest (260°)18.4 mph26.5 mph0.00 inSnowLight Snow
10:07 AM21.2 °F17.6 °F86 %29.68 in1.2 miWest (270°)16.1 mph23.0 mph0.00 inSnowLight Snow
10:14 AM21.2 °F17.6 °F86 %29.69 in3.0 miWest (260°)17.3 mph0.00 inSnowLight Snow
10:18 AM21.2 °F17.6 °F86 %29.69 in1.8 miWest (270°)19.6 mph0.00 inSnowLight Snow
10:22 AM21.2 °F17.6 °F86 %29.69 in0.8 miWest (270°)15.0 mph26.5 mph0.00 inSnowLight Snow
10:32 AM21.2 °F17.6 °F86 %29.70 in0.5 miWest (280°)23.0 mph29.9 mph0.00 inFog-SnowSnow
10:44 AM21.2 °F14.0 °F74 %29.71 in1.0 miWest (270°)23.0 mph40.3 mph0.00 inSnowLight Snow
10:46 AM21.2 °F14.0 °F74 %29.71 in2.0 miWest (270°)20.7 mph40.3 mph0.00 inSnowLight Snow
10:53 AM21.2 °F12.2 °F68 %29.71 in8.0 miWest (270°)23.0 mph34.5 mph0.00 inSnowLight Snow
10:56 AM21.9 °F14.0 °F72 %29.75 in9.0 miWest (270°)21.9 mph34.5 mph0.00 inOvercast
11:09 AM21.2 °F10.4 °F63 %29.73 in10.0 miWest (270°)26.5 mph41.4 mphOvercast
11:56 AM21.0 °F10.9 °F65 %29.78 in10.0 miWest (270°)19.6 mph34.5 mph0.00 inOvercast
12:31 PM21.2 °F15.8 °F80 %29.74 in2.5 miWest (260°)18.4 mph27.6 mph0.00 inSnowLight Snow
12:39 PM21.2 °F15.8 °F80 %29.74 in1.0 miWest (260°)21.9 mph28.8 mph0.00 inSnowLight Snow
12:54 PM21.2 °F15.8 °F80 %29.75 in2.0 miWest (270°)18.4 mph29.9 mph0.00 inSnowLight Snow
12:55 PM21.0 °F15.1 °F78 %29.79 in2.0 miWest (270°)18.4 mph29.9 mph0.00 inSnowLight Snow
1:08 PM21.2 °F15.8 °F80 %29.75 in1.5 miWest (260°)21.9 mph27.6 mph0.00 inSnowLight Snow
1:18 PM21.2 °F15.8 °F80 %29.75 in1.0 miWest (270°)17.3 mph26.5 mph0.00 inSnowLight Snow
1:24 PM21.2 °F15.8 °F80 %29.75 in2.0 miWest (270°)20.7 mph28.8 mph0.00 inSnowLight Snow
1:32 PM21.2 °F12.2 °F68 %29.75 in8.0 miWest (280°)23.0 mph28.8 mph0.00 inSnowLight Snow
1:56 PM21.0 °F12.9 °F71 %29.80 in4.0 miWest (270°)18.4 mph31.1 mph0.00 inSnowLight Snow
2:04 PM21.2 °F14.0 °F74 %29.76 in7.0 miWest (260°)19.6 mph27.6 mph0.00 inOvercast
2:14 PM21.2 °F14.0 °F74 %29.76 in3.0 miWest (270°)21.9 mph27.6 mph0.00 inSnowLight Snow
2:47 PM21.2 °F17.6 °F86 %29.77 in0.5 miWest (260°)16.1 mph0.00 inFog-SnowSnow
2:56 PM21.0 °F17.1 °F85 %29.81 in1.0 miWest (260°)12.7 mph0.00 inSnowLight Snow
3:05 PM21.2 °F17.6 °F86 %29.77 in1.5 miWest (270°)15.0 mph21.9 mph0.00 inSnowLight Snow
3:08 PM21.2 °F17.6 °F86 %29.77 in0.8 miWest (260°)17.3 mph21.9 mph0.00 inSnowLight Snow
3:20 PM21.2 °F17.6 °F86 %29.77 in1.2 miWest (260°)12.7 mph0.00 inSnowLight Snow
3:35 PM23.0 °F17.6 °F80 %29.76 in3.0 miWest (270°)16.1 mph21.9 mph0.00 inSnowLight Snow
3:46 PM23.0 °F15.8 °F74 %29.76 in9.0 miWest (260°)15.0 mph23.0 mph0.00 inOvercast
3:56 PM23.0 °F17.1 °F78 %29.81 in1.5 miWSW (250°)19.6 mph24.2 mph0.00 inSnowLight Snow
3:59 PM23.0 °F17.6 °F80 %29.77 in0.8 miWSW (250°)17.3 mph24.2 mph0.00 inSnowLight Snow
4:21 PM21.2 °F19.4 °F93 %29.77 in0.2 miWest (260°)15.0 mph24.2 mph0.00 inFog-SnowHeavy Snow
4:34 PM21.2 °F17.6 °F86 %29.77 in2.0 miWest (260°)13.8 mph20.7 mph0.00 inSnowLight Snow
4:39 PM21.2 °F17.6 °F86 %29.77 in7.0 miWSW (250°)18.4 mph24.2 mph0.00 inSnowLight Snow
4:46 PM23.0 °F17.6 °F80 %29.77 in10.0 miWest (260°)17.3 mph25.3 mph0.00 inMostly Cloudy
4:54 PM24.8 °F17.6 °F74 %29.77 in9.0 miWest (260°)19.6 mph25.3 mph0.00 inMostly Cloudy
4:56 PM24.1 °F17.1 °F75 %29.81 in9.0 miWest (260°)17.3 mph25.3 mph0.00 inMostly Cloudy
5:15 PM23.0 °F15.8 °F74 %29.77 in1.5 miWest (280°)27.6 mph39.1 mph0.01 inSnowLight Snow
5:26 PM23.0 °F15.8 °F74 %29.78 in3.0 miWest (280°)19.6 mph29.9 mph0.01 inSnowLight Snow
5:56 PM21.9 °F14.0 °F72 %29.83 in10.0 miWest (270°)19.6 mph28.8 mph0.01 inScattered Clouds
6:56 PM21.9 °F14.0 °F72 %29.85 in10.0 miWest (270°)15.0 mph21.9 mph0.00 inMostly Cloudy
7:56 PM21.9 °F12.9 °F68 %29.87 in9.0 miWest (270°)13.8 mph26.5 mph0.00 inSnowLight Snow
8:14 PM21.2 °F12.2 °F68 %29.83 in6.0 miWest (260°)19.6 mph27.6 mph0.00 inSnowLight Snow
9:09 PM19.4 °F12.2 °F74 %29.84 in7.0 miWNW (300°)19.6 mph25.3 mph0.00 inSnowLight Snow
9:21 PM19.4 °F12.2 °F74 %29.84 in10.0 miWNW (300°)17.3 mph24.2 mph0.00 inOvercast
9:56 PM19.0 °F10.0 °F68 %29.90 in10.0 miWNW (300°)13.8 mph21.9 mph0.00 inMostly Cloudy
10:56 PM18.0 °F10.0 °F71 %29.91 in9.0 miWNW (300°)16.1 mph0.00 inSnowLight Snow
11:56 PM16.0 °F6.1 °F65 %29.91 in10.0 miWNW (290°)18.4 mphPartly Cloudy
Hourly data recorded from KBJJ, located miles away from Millersburg, Ohio







STORIES FROM OUR PARTNERS